Time,TemperatureF,DewpointF,PressureIn,WindDirection,WindDirectionDegrees,WindSpeedMPH,WindSpeedGustMPH,Humidity,HourlyPrecipIn,Conditions,Clouds,dailyrainin,SoftwareType,DateUTC
2013-03-25 00:02:00,27.7,20.3,29.80,North,349,7.6,11.1,73,0.00,,,0.00,WUHU216HW,2013-03-25 05:02:00,
2013-03-25 00:12:00,27.5,20.4,29.80,North,4,7.8,12.5,74,0.00,,,0.00,WUHU216HW,2013-03-25 05:12:00,
2013-03-25 00:22:00,27.0,19.6,29.80,North,352,7.8,10.6,73,0.00,,,0.00,WUHU216HW,2013-03-25 05:22:00,
2013-03-25 00:33:00,26.6,19.2,29.79,NNW,341,7.9,9.4,73,0.00,,,0.00,WUHU216HW,2013-03-25 05:33:00,
2013-03-25 00:43:00,26.3,19.2,29.79,NNW,347,6.8,11.1,74,0.00,,,0.00,WUHU216HW,2013-03-25 05:43:00,
2013-03-25 00:53:00,26.1,19.0,29.79,North,351,7.5,11.6,74,0.00,,,0.00,WUHU216HW,2013-03-25 05:53:00,
2013-03-25 01:03:00,25.9,19.2,29.79,North,350,7.1,10.1,75,0.00,,,0.00,WUHU216HW,2013-03-25 06:03:00,
2013-03-25 01:13:00,25.9,19.2,29.79,North,352,7.2,15.9,75,0.00,,,0.00,WUHU216HW,2013-03-25 06:13:00,
2013-03-25 01:23:00,25.6,19.2,29.79,North,350,7.0,9.1,76,0.00,,,0.00,WUHU216HW,2013-03-25 06:23:00,
2013-03-25 01:34:00,25.6,19.5,29.79,North,359,6.4,9.8,77,0.00,,,0.00,WUHU216HW,2013-03-25 06:34:00,
2013-03-25 01:44:00,25.6,19.5,29.79,North,5,7.0,14.1,77,0.00,,,0.00,WUHU216HW,2013-03-25 06:44:00,
2013-03-25 01:54:00,25.6,19.8,29.79,NNW,342,7.6,11.8,78,0.00,,,0.00,WUHU216HW,2013-03-25 06:54:00,
2013-03-25 02:04:00,25.4,19.9,29.78,North,351,6.0,7.4,79,0.00,,,0.00,WUHU216HW,2013-03-25 07:04:00,
2013-03-25 02:14:00,25.4,19.9,29.78,North,6,7.2,9.4,79,0.00,,,0.00,WUHU216HW,2013-03-25 07:14:00,
2013-03-25 02:24:00,25.4,20.2,29.78,North,358,7.4,12.5,80,0.00,,,0.00,WUHU216HW,2013-03-25 07:24:00,
2013-03-25 02:34:00,25.4,20.2,29.78,North,350,8.7,15.0,80,0.00,,,0.00,WUHU216HW,2013-03-25 07:34:00,
2013-03-25 02:44:00,25.6,20.3,29.78,North,356,8.5,12.5,80,0.00,,,0.00,WUHU216HW,2013-03-25 07:44:00,
2013-03-25 02:54:00,25.6,20.3,29.78,North,353,7.1,11.6,80,0.00,,,0.00,WUHU216HW,2013-03-25 07:54:00,
2013-03-25 03:04:00,25.6,20.3,29.78,North,355,7.4,10.1,80,0.00,,,0.00,WUHU216HW,2013-03-25 08:04:00,
2013-03-25 03:14:00,25.6,20.3,29.77,North,2,8.3,12.1,80,0.00,,,0.00,WUHU216HW,2013-03-25 08:14:00,
2013-03-25 03:24:00,25.6,20.6,29.77,North,358,6.4,11.1,81,0.00,,,0.00,WUHU216HW,2013-03-25 08:24:00,
2013-03-25 03:34:00,25.6,20.6,29.77,North,351,5.9,8.9,81,0.00,,,0.00,WUHU216HW,2013-03-25 08:34:00,
2013-03-25 03:44:00,25.6,20.3,29.77,North,357,6.7,12.3,80,0.00,,,0.00,WUHU216HW,2013-03-25 08:44:00,
2013-03-25 03:54:00,25.4,20.2,29.77,North,352,7.4,10.1,80,0.00,,,0.00,WUHU216HW,2013-03-25 08:54:00,
2013-03-25 04:04:00,25.4,20.2,29.77,NNW,345,6.3,7.9,80,0.00,,,0.00,WUHU216HW,2013-03-25 09:04:00,
2013-03-25 04:14:00,25.2,20.2,29.77,NNW,346,6.1,9.4,81,0.00,,,0.00,WUHU216HW,2013-03-25 09:14:00,
2013-03-25 04:24:00,25.2,20.2,29.77,NNW,345,5.6,8.6,81,0.00,,,0.00,WUHU216HW,2013-03-25 09:24:00,
2013-03-25 04:34:00,25.0,20.0,29.77,NNW,346,6.0,9.8,81,0.00,,,0.00,WUHU216HW,2013-03-25 09:34:00,
2013-03-25 04:44:00,24.8,20.1,29.77,North,353,6.2,9.4,82,0.00,,,0.00,WUHU216HW,2013-03-25 09:44:00,
2013-03-25 04:54:00,24.8,20.1,29.77,North,349,5.3,7.6,82,0.00,,,0.00,WUHU216HW,2013-03-25 09:54:00,
2013-03-25 05:04:00,24.8,20.1,29.77,North,349,6.1,9.8,82,0.00,,,0.00,WUHU216HW,2013-03-25 10:04:00,
2013-03-25 05:14:00,24.8,20.4,29.78,North,351,5.2,7.6,83,0.00,,,0.00,WUHU216HW,2013-03-25 10:14:00,
2013-03-25 05:24:00,24.8,20.4,29.78,North,350,5.0,6.9,83,0.00,,,0.00,WUHU216HW,2013-03-25 10:24:00,
2013-03-25 05:34:00,24.5,20.1,29.78,North,349,3.5,4.4,83,0.00,,,0.00,WUHU216HW,2013-03-25 10:34:00,
2013-03-25 05:44:00,24.5,20.4,29.78,NNW,343,5.3,7.4,84,0.00,,,0.00,WUHU216HW,2013-03-25 10:44:00,
2013-03-25 05:55:00,24.5,20.4,29.79,NNW,346,5.4,7.9,84,0.00,,,0.00,WUHU216HW,2013-03-25 10:55:00,
2013-03-25 06:05:00,24.1,20.0,29.79,North,351,4.7,6.9,84,0.00,,,0.00,WUHU216HW,2013-03-25 11:05:00,
2013-03-25 06:15:00,23.4,19.3,29.79,NNW,344,4.7,5.9,84,0.00,,,0.00,WUHU216HW,2013-03-25 11:15:00,
2013-03-25 06:25:00,23.0,18.9,29.79,North,355,5.2,6.4,84,0.00,,,0.00,WUHU216HW,2013-03-25 11:25:00,
2013-03-25 06:35:00,22.7,18.9,29.80,North,1,5.6,7.4,85,0.00,,,0.00,WUHU216HW,2013-03-25 11:35:00,
2013-03-25 06:45:00,22.7,18.9,29.80,North,357,5.0,8.6,85,0.00,,,0.00,WUHU216HW,2013-03-25 11:45:00,
2013-03-25 06:55:00,22.7,18.9,29.80,North,349,4.8,7.6,85,0.00,,,0.00,WUHU216HW,2013-03-25 11:55:00,
2013-03-25 07:05:00,22.9,19.4,29.81,North,352,5.6,8.1,86,0.00,,,0.00,WUHU216HW,2013-03-25 12:05:00,
2013-03-25 07:15:00,23.1,19.5,29.81,NNW,345,5.7,8.4,86,0.00,,,0.00,WUHU216HW,2013-03-25 12:15:00,
2013-03-25 07:26:00,23.2,19.6,29.81,North,350,5.3,7.6,86,0.00,,,0.00,WUHU216HW,2013-03-25 12:26:00,
2013-03-25 07:36:00,23.3,19.8,29.81,NNW,343,5.0,8.4,86,0.00,,,0.00,WUHU216HW,2013-03-25 12:36:00,
2013-03-25 07:46:00,23.4,19.9,29.81,NNW,345,5.9,6.9,86,0.00,,,0.00,WUHU216HW,2013-03-25 12:46:00,
2013-03-25 07:56:00,23.7,19.8,29.82,North,351,5.4,7.9,85,0.00,,,0.00,WUHU216HW,2013-03-25 12:56:00,
2013-03-25 08:06:00,23.6,19.8,29.82,North,354,5.9,8.1,85,0.00,,,0.00,WUHU216HW,2013-03-25 13:06:00,
2013-03-25 08:16:00,23.9,20.1,29.83,NNW,342,5.5,6.6,85,0.00,,,0.00,WUHU216HW,2013-03-25 13:16:00,
2013-03-25 08:26:00,23.8,20.0,29.83,North,355,5.4,8.1,85,0.00,,,0.00,WUHU216HW,2013-03-25 13:26:00,
2013-03-25 08:36:00,24.1,20.2,29.83,North,354,5.3,7.6,85,0.00,,,0.00,WUHU216HW,2013-03-25 13:36:00,
2013-03-25 08:46:00,24.0,20.2,29.83,North,349,5.8,8.4,85,0.00,,,0.00,WUHU216HW,2013-03-25 13:46:00,
2013-03-25 08:57:00,24.3,20.2,29.84,North,359,6.3,7.6,84,0.00,,,0.00,WUHU216HW,2013-03-25 13:57:00,
2013-03-25 09:07:00,24.7,20.6,29.84,NNW,341,5.8,8.1,84,0.00,,,0.00,WUHU216HW,2013-03-25 14:07:00,
2013-03-25 09:17:00,24.6,20.2,29.84,North,351,5.1,6.4,83,0.00,,,0.00,WUHU216HW,2013-03-25 14:17:00,
2013-03-25 09:27:00,24.8,20.2,29.85,NNW,348,5.0,6.4,82,0.00,,,0.00,WUHU216HW,2013-03-25 14:27:00,
2013-03-25 09:37:00,24.8,20.1,29.85,North,350,5.1,6.6,82,0.00,,,0.00,WUHU216HW,2013-03-25 14:37:00,
2013-03-25 09:47:00,25.4,20.7,29.86,NNW,343,5.0,6.9,82,0.00,,,0.00,WUHU216HW,2013-03-25 14:47:00,
2013-03-25 09:57:00,26.0,21.0,29.86,NNW,343,5.6,9.1,81,0.00,,,0.00,WUHU216HW,2013-03-25 14:57:00,
2013-03-25 10:07:00,25.9,20.9,29.87,NNW,347,5.8,10.8,81,0.00,,,0.00,WUHU216HW,2013-03-25 15:07:00,
2013-03-25 10:17:00,26.6,21.0,29.87,NNW,341,6.0,8.4,79,0.00,,,0.00,WUHU216HW,2013-03-25 15:17:00,
2013-03-25 10:27:00,27.0,21.5,29.87,North,359,5.9,8.1,79,0.00,,,0.00,WUHU216HW,2013-03-25 15:27:00,
2013-03-25 10:38:00,27.9,22.3,29.87,NNW,347,6.1,8.4,79,0.00,,,0.00,WUHU216HW,2013-03-25 15:38:00,
2013-03-25 10:48:00,28.0,21.8,29.88,NNW,341,7.0,12.5,77,0.00,,,0.00,WUHU216HW,2013-03-25 15:48:00,
2013-03-25 10:58:00,28.7,22.5,29.88,NNW,345,5.8,7.6,77,0.00,,,0.00,WUHU216HW,2013-03-25 15:58:00,
2013-03-25 11:08:00,29.1,22.5,29.88,North,2,5.7,8.9,76,0.00,,,0.00,WUHU216HW,2013-03-25 16:08:00,
2013-03-25 11:18:00,29.7,23.2,29.88,NNW,345,5.7,7.6,76,0.01,,,0.01,WUHU216HW,2013-03-25 16:18:00,
2013-03-25 11:28:00,30.3,23.7,29.89,North,354,8.1,10.6,76,0.01,,,0.01,WUHU216HW,2013-03-25 16:28:00,
2013-03-25 11:38:00,30.1,22.9,29.89,North,351,7.9,10.1,74,0.01,,,0.01,WUHU216HW,2013-03-25 16:38:00,
2013-03-25 11:48:00,30.3,23.4,29.89,North,350,6.7,8.1,75,0.01,,,0.01,WUHU216HW,2013-03-25 16:48:00,
2013-03-25 11:58:00,30.2,23.4,29.90,North,358,7.1,8.4,75,0.01,,,0.01,WUHU216HW,2013-03-25 16:58:00,
2013-03-25 12:08:00,30.0,23.2,29.90,NNW,345,7.9,13.3,75,0.00,,,0.01,WUHU216HW,2013-03-25 17:08:00,
2013-03-25 12:18:00,30.2,23.0,29.90,NNW,344,7.8,12.1,74,0.00,,,0.01,WUHU216HW,2013-03-25 17:18:00,
2013-03-25 12:28:00,30.2,23.0,29.90,North,349,6.2,7.9,74,0.00,,,0.01,WUHU216HW,2013-03-25 17:28:00,
2013-03-25 12:39:00,29.4,22.2,29.90,NNW,346,8.3,10.1,74,0.00,,,0.01,WUHU216HW,2013-03-25 17:39:00,
2013-03-25 12:49:00,29.6,22.4,29.90,North,349,7.6,10.3,74,0.00,,,0.01,WUHU216HW,2013-03-25 17:49:00,
2013-03-25 12:59:00,29.8,22.0,29.90,NNW,337,8.8,12.3,72,0.00,,,0.01,WUHU216HW,2013-03-25 17:59:00,
2013-03-25 13:09:00,30.5,22.3,29.90,NNW,347,8.2,11.6,71,0.00,,,0.01,WUHU216HW,2013-03-25 18:09:00,
2013-03-25 13:19:00,30.5,22.0,29.90,North,350,9.4,14.1,70,0.00,,,0.01,WUHU216HW,2013-03-25 18:19:00,
2013-03-25 13:29:00,30.7,21.9,29.90,North,356,8.2,10.1,69,0.00,,,0.01,WUHU216HW,2013-03-25 18:29:00,
2013-03-25 13:39:00,31.1,21.9,29.91,North,351,7.3,12.5,68,0.00,,,0.01,WUHU216HW,2013-03-25 18:39:00,
2013-03-25 13:49:00,30.8,22.3,29.91,NNW,338,8.7,10.8,70,0.00,,,0.01,WUHU216HW,2013-03-25 18:49:00,
2013-03-25 13:59:00,30.8,22.6,29.91,NNW,343,6.8,9.1,71,0.00,,,0.01,WUHU216HW,2013-03-25 18:59:00,
2013-03-25 14:09:00,30.1,21.6,29.91,North,355,8.1,14.1,70,0.01,,,0.02,WUHU216HW,2013-03-25 19:09:00,
2013-03-25 14:19:00,29.2,21.8,29.92,North,356,8.4,13.8,73,0.01,,,0.02,WUHU216HW,2013-03-25 19:19:00,
2013-03-25 14:29:00,29.5,22.3,29.91,North,355,7.2,10.1,74,0.01,,,0.02,WUHU216HW,2013-03-25 19:29:00,
2013-03-25 14:40:00,29.3,22.8,29.92,North,349,6.6,9.6,76,0.01,,,0.02,WUHU216HW,2013-03-25 19:40:00,
2013-03-25 14:50:00,29.5,23.3,29.92,North,357,7.3,9.6,77,0.01,,,0.02,WUHU216HW,2013-03-25 19:50:00,
2013-03-25 15:00:00,29.9,23.3,29.92,NNW,347,6.4,10.1,76,0.01,,,0.02,WUHU216HW,2013-03-25 20:00:00,
2013-03-25 15:10:00,30.5,23.6,29.92,NNW,344,6.3,12.1,75,0.00,,,0.02,WUHU216HW,2013-03-25 20:10:00,
2013-03-25 15:20:00,30.6,23.7,29.92,NNW,341,6.5,8.4,75,0.00,,,0.02,WUHU216HW,2013-03-25 20:20:00,
2013-03-25 15:30:00,30.7,23.5,29.93,North,350,6.5,10.1,74,0.00,,,0.02,WUHU216HW,2013-03-25 20:30:00,
2013-03-25 15:40:00,30.7,23.5,29.93,North,357,6.6,9.1,74,0.00,,,0.02,WUHU216HW,2013-03-25 20:40:00,
2013-03-25 15:50:00,30.8,23.6,29.93,NNW,348,5.2,6.9,74,0.00,,,0.02,WUHU216HW,2013-03-25 20:50:00,
2013-03-25 16:00:00,30.9,23.7,29.93,NNW,347,5.9,8.1,74,0.00,,,0.02,WUHU216HW,2013-03-25 21:00:00,
2013-03-25 16:10:00,30.9,23.7,29.94,North,351,5.3,9.8,74,0.00,,,0.02,WUHU216HW,2013-03-25 21:10:00,
2013-03-25 16:20:00,31.2,23.7,29.94,North,354,5.8,6.9,73,0.00,,,0.02,WUHU216HW,2013-03-25 21:20:00,
2013-03-25 16:30:00,31.5,23.9,29.94,North,358,5.8,7.6,73,0.00,,,0.02,WUHU216HW,2013-03-25 21:30:00,
2013-03-25 16:40:00,31.5,23.7,29.94,NNW,344,5.0,7.2,72,0.00,,,0.02,WUHU216HW,2013-03-25 21:40:00,
2013-03-25 16:50:00,31.6,24.0,29.95,North,350,5.1,8.1,73,0.00,,,0.02,WUHU216HW,2013-03-25 21:50:00,
2013-03-25 17:01:00,31.6,24.1,29.95,North,349,4.6,6.2,73,0.00,,,0.02,WUHU216HW,2013-03-25 22:01:00,
2013-03-25 17:11:00,31.7,24.2,29.96,North,351,5.4,8.4,73,0.00,,,0.02,WUHU216HW,2013-03-25 22:11:00,
2013-03-25 17:21:00,32.2,24.9,29.96,North,355,3.8,6.4,74,0.00,,,0.02,WUHU216HW,2013-03-25 22:21:00,
2013-03-25 17:31:00,32.1,24.5,29.96,North,356,3.9,6.2,73,0.00,,,0.02,WUHU216HW,2013-03-25 22:31:00,
2013-03-25 17:41:00,32.1,24.9,29.96,North,350,3.5,5.9,74,0.00,,,0.02,WUHU216HW,2013-03-25 22:41:00,
2013-03-25 17:51:00,32.0,24.4,29.96,North,354,4.0,5.6,73,0.00,,,0.02,WUHU216HW,2013-03-25 22:51:00,
2013-03-25 18:02:00,32.1,25.2,29.97,North,350,2.5,3.7,75,0.00,,,0.02,WUHU216HW,2013-03-25 23:02:00,
2013-03-25 18:12:00,32.4,25.1,29.98,NNW,347,2.9,4.0,74,0.00,,,0.02,WUHU216HW,2013-03-25 23:12:00,
2013-03-25 18:22:00,32.0,25.1,29.98,North,352,2.0,2.8,75,0.00,,,0.02,WUHU216HW,2013-03-25 23:22:00,
2013-03-25 18:32:00,32.1,25.2,29.99,NNW,348,1.4,1.8,75,0.00,,,0.02,WUHU216HW,2013-03-25 23:32:00,
2013-03-25 18:42:00,32.2,25.3,29.99,NNW,348,2.0,2.8,75,0.00,,,0.02,WUHU216HW,2013-03-25 23:42:00,
2013-03-25 18:52:00,32.2,25.0,29.99,North,349,1.6,3.2,74,0.00,,,0.02,WUHU216HW,2013-03-25 23:52:00,
2013-03-25 19:02:00,32.0,24.8,30.00,North,349,1.8,2.8,74,0.00,,,0.02,WUHU216HW,2013-03-26 00:02:00,
2013-03-25 19:12:00,32.0,25.1,30.00,North,354,2.0,3.0,75,0.00,,,0.02,WUHU216HW,2013-03-26 00:12:00,
2013-03-25 19:22:00,32.0,25.1,30.01,North,350,1.5,2.8,75,0.00,,,0.02,WUHU216HW,2013-03-26 00:22:00,
2013-03-25 19:32:00,32.0,25.4,30.01,NNW,342,1.4,3.0,76,0.00,,,0.02,WUHU216HW,2013-03-26 00:32:00,
2013-03-25 19:42:00,31.9,25.3,30.01,North,1,1.3,2.0,76,0.00,,,0.02,WUHU216HW,2013-03-26 00:42:00,
2013-03-25 19:52:00,31.9,25.3,30.01,North,353,1.8,3.0,76,0.00,,,0.02,WUHU216HW,2013-03-26 00:52:00,
2013-03-25 20:02:00,31.9,25.6,30.02,NNW,338,1.7,2.4,77,0.00,,,0.02,WUHU216HW,2013-03-26 01:02:00,
2013-03-25 20:12:00,31.9,25.3,30.02,North,352,1.3,2.2,76,0.00,,,0.02,WUHU216HW,2013-03-26 01:12:00,
2013-03-25 20:22:00,31.9,25.6,30.02,NNW,345,1.5,2.4,77,0.00,,,0.02,WUHU216HW,2013-03-26 01:22:00,
2013-03-25 20:33:00,31.7,25.7,30.02,NNW,345,1.2,2.0,78,0.00,,,0.02,WUHU216HW,2013-03-26 01:33:00,
2013-03-25 20:43:00,31.7,25.7,30.03,NNW,339,1.4,2.0,78,0.00,,,0.02,WUHU216HW,2013-03-26 01:43:00,
2013-03-25 20:53:00,31.7,25.7,30.03,NNW,337,1.2,2.2,78,0.00,,,0.02,WUHU216HW,2013-03-26 01:53:00,
2013-03-25 21:03:00,31.7,25.4,30.03,North,352,1.4,2.0,77,0.00,,,0.02,WUHU216HW,2013-03-26 02:03:00,
2013-03-25 21:13:00,31.5,25.5,30.03,NNW,341,1.2,2.0,78,0.00,,,0.02,WUHU216HW,2013-03-26 02:13:00,
2013-03-25 21:23:00,31.5,25.5,30.04,North,350,1.2,1.8,78,0.00,,,0.02,WUHU216HW,2013-03-26 02:23:00,
2013-03-25 21:33:00,31.5,25.5,30.04,North,349,0.6,1.2,78,0.00,,,0.02,WUHU216HW,2013-03-26 02:33:00,
2013-03-25 21:43:00,31.7,25.1,30.04,North,1,1.6,2.8,76,0.00,,,0.02,WUHU216HW,2013-03-26 02:43:00,
2013-03-25 21:53:00,31.7,25.4,30.04,North,351,1.2,1.8,77,0.00,,,0.02,WUHU216HW,2013-03-26 02:53:00,
2013-03-25 22:03:00,31.5,25.2,30.04,North,352,0.7,1.2,77,0.00,,,0.02,WUHU216HW,2013-03-26 03:03:00,
2013-03-25 22:13:00,31.5,24.9,30.04,North,355,0.8,1.4,76,0.00,,,0.02,WUHU216HW,2013-03-26 03:13:00,
2013-03-25 22:23:00,31.5,24.9,30.04,NNW,348,0.8,1.4,76,0.00,,,0.02,WUHU216HW,2013-03-26 03:23:00,
2013-03-25 22:33:00,31.7,25.1,30.04,NNW,342,0.8,1.2,76,0.00,,,0.02,WUHU216HW,2013-03-26 03:33:00,
2013-03-25 22:43:00,31.3,24.7,30.04,North,350,0.5,1.2,76,0.00,,,0.02,WUHU216HW,2013-03-26 03:43:00,
2013-03-25 22:53:00,31.3,24.7,30.05,North,350,0.7,1.4,76,0.00,,,0.02,WUHU216HW,2013-03-26 03:53:00,
2013-03-25 23:03:00,31.3,24.7,30.04,NNW,342,0.6,1.2,76,0.00,,,0.02,WUHU216HW,2013-03-26 04:03:00,
2013-03-25 23:13:00,31.3,24.7,30.05,North,350,0.6,1.2,76,0.00,,,0.02,WUHU216HW,2013-03-26 04:13:00,
2013-03-25 23:23:00,31.3,24.7,30.05,NNW,348,0.6,1.0,76,0.00,,,0.02,WUHU216HW,2013-03-26 04:23:00,
2013-03-25 23:33:00,31.3,24.7,30.05,North,350,0.8,1.2,76,0.00,,,0.02,WUHU216HW,2013-03-26 04:33:00,
2013-03-25 23:43:00,31.3,24.7,30.05,North,354,1.1,1.8,76,0.00,,,0.02,WUHU216HW,2013-03-26 04:43:00,
2013-03-25 23:53:00,31.3,24.7,30.05,North,350,1.0,1.4,76,0.00,,,0.02,WUHU216HW,2013-03-26 04:53:00,